User: anonymous   Login
Location: Holcomb Observatory
(44.4922°N, 73.1654°W)
Time: 01:33:43
(UTC-05:00)
Language:

SL-16 R/B - Orbit

View from above orbital plane
View from above orbital plane
View from above satellite
View from above satellite

Ground track
Ground track

The orbit data is extracted from the following two-line orbital elements,

1 27006U 01056F   17324.46677947 -.00000045 +00000-0 -18389-5 0  9999
2 27006 099.3378 101.0221 0013806 262.2791 139.2763 13.70968438797913
Epoch (UTC): 20 November 2017 11:12:09
Eccentricity: 0.0013806
inclination: 99.3378°
perigee height: 986 km
apogee height: 1006 km
right ascension of ascending node: 101.0221°
argument of perigee: 262.2791°
revolutions per day: 13.70968438
mean anomaly at epoch: 139.2763°
orbit number at epoch: 79791

The dashed part of the orbit path shows where the satellite is in the earth's shadow,  

DLR